Flag for Congo Dem.Rep. Weather past 2 weeks in Bukavu, Congo Dem.Rep.

Now
68 °F

Scattered clouds.


Feels Like: 68 °F
Forecast: 53 / 72 °F
Wind: No wind

Location: Kigali Airport

Current Time: Jul 28, 2014 at 8:24:07 AM

Latest Report: Jul 28, 2014 at 8:00 AM


Visibility: N/A

Pressure: 30.21 "Hg

Humidity: 100%

Dew point: 68 °F

Location of BukavuLocation

Historic Weather in Bukavu — Graph

°F

Bukavu temperature yesterday

Maximum temperature yesterday: 82 °F (at 1:00 PM)
Minimum temperature yesterday: 64 °F (at 2:30 AM)
Average temperature yesterday: 72 °F

Past Weeks' High & Low Weather Summary

 TemperatureHumidityPressure
High86 °F (Jul 14, 2:00 PM)100% (Jul 19, 4:00 AM)30.27 "Hg (Jul 19, 4:00 AM)
Low55 °F (Jul 19, 4:00 AM)31% (Jul 14, 4:00 PM)30.07 "Hg (Jul 14, 3:00 PM)
Average73 °F59%30.16 "Hg
* Reported Jul 13 7:00 AM — Jul 28 7:30 AM, Bukavu, Weather by CustomWeather, © 2014

Note: Actual official high and low records may vary slightly from our data, if they occured in-between our weather recording intervals... More about our weather records

Advertising

Bukavu weather history for previous 24 hours

 ConditionsComfort  
Time TempWeatherWind HumidityBarometerVisibility
7:30 AM
Jul 28
64 °FScattered clouds.No wind100%30.21 "HgN/A
7:00 AM64 °FScattered clouds.No wind100%30.18 "HgN/A
6:00 AM64 °FPassing clouds.No wind100%30.18 "Hg5 mi
5:30 AM64 °FPassing clouds.No wind100%30.18 "Hg5 mi
4:30 AM64 °FPassing clouds.6 mph100%30.15 "Hg4 mi
4:00 AM64 °FPassing clouds.5 mph100%30.15 "Hg4 mi
3:30 AM64 °FPassing clouds.3 mph100%30.15 "Hg4 mi
3:00 AM64 °FPassing clouds.5 mph100%30.15 "Hg4 mi
2:30 AM64 °FPassing clouds.3 mph100%30.15 "Hg4 mi
2:00 AM64 °FPassing clouds.6 mph100%30.15 "Hg4 mi
1:30 AM64 °FPassing clouds.5 mph100%30.15 "HgN/A
1:00 AM64 °FThunderstorms. Passing clouds.5 mph100%30.18 "HgN/A
12:30 AM64 °FThunderstorms. Passing clouds.No wind100%30.18 "HgN/A
12:00 AM66 °FThunderstorms. Passing clouds.8 mph100%30.18 "HgN/A
11:30 PM
Jul 27
70 °FThunderstorms. Passing clouds.3 mph78%30.18 "HgN/A
11:00 PM70 °FPartly cloudy.3 mph78%30.18 "HgN/A
10:30 PM72 °FPassing clouds.7 mph73%30.18 "HgN/A
10:00 PM73 °FPartly cloudy.No wind69%30.18 "HgN/A
9:30 PM73 °FPassing clouds.5 mph69%30.18 "HgN/A
9:00 PM73 °FPartly cloudy.5 mph69%30.18 "HgN/A
8:30 PM75 °FPartly cloudy.6 mph61%30.15 "HgN/A
8:00 PM75 °FPartly cloudy.6 mph61%30.15 "HgN/A
7:30 PM75 °FPassing clouds.6 mph61%30.15 "HgN/A
7:00 PM75 °FPassing clouds.No wind61%30.12 "HgN/A
6:30 PM77 °FPassing clouds.No wind54%30.12 "HgN/A
6:00 PM79 °FScattered clouds.3 mph51%30.09 "HgN/A
5:30 PM79 °FScattered clouds.5 mph51%30.09 "HgN/A
3:30 PM82 °FPartly sunny.13 mph48%30.09 "Hg5 mi
3:00 PM81 °FPartly sunny.5 mph48%30.09 "Hg5 mi
2:30 PM81 °FPartly sunny.6 mph48%30.12 "Hg5 mi
2:00 PM82 °FScattered clouds.8 mph48%30.12 "HgN/A
1:30 PM82 °FScattered clouds.6 mph48%30.15 "HgN/A
1:00 PM82 °FScattered clouds.5 mph48%30.15 "HgN/A
12:30 PM81 °FScattered clouds.6 mph48%30.18 "HgN/A
12:00 PM81 °FScattered clouds.No wind51%30.18 "HgN/A
11:00 AM79 °FScattered clouds.3 mph54%30.21 "HgN/A
10:30 AM77 °FScattered clouds.3 mph57%30.24 "Hg6 mi
10:00 AM75 °FScattered clouds.No wind61%30.24 "Hg6 mi
9:00 AM70 °FBroken clouds.No wind73%30.24 "Hg5 mi
8:30 AM68 °FBroken clouds.No wind78%30.21 "Hg5 mi
8:00 AM66 °FBroken clouds.No wind83%30.21 "Hg5 mi
Weather by CustomWeather, © 2014

See weather overviewHow to use our weather pages